Location: Newark
(9.4667°S, 159.8167°E)
Time: 05:01:03
(UTC+00:00)

Courier 1B Rocket - Pass Details

Date: 28 November 2019
Orbit: 920 x 1202 km, 28.2° (Epoch: 05 December)

Event Time Altitude Azimuth Distance (km) Brightness Sun altitude
Rises 19:24:00 0° 245° (WSW) 3,795 7.7 7.0°
Reaches altitude 10° 19:26:48 10° 246° (WSW) 2,797 7.0 7.6°
Maximum altitude 19:33:32 75° 330° (NNW) 1,000 5.2 9.2°
Drops below altitude 10° 19:39:51 10° 55° (NE) 2,631 7.9 10.6°
Sets 19:42:25 0° 57° (ENE) 3,555 8.5 11.2°
